Regional Weather Roundup
Issued by NWS

Home | Current Version | Previous Version | Text Only | Print | Product List | Glossary On
Versions: 1 2 3 4 5 6 7 8 9 10 11 12 13 14 15 16 17 18 19 20 21 22 23 24 25 26 27 28 29 30 31 32 33 34 35 36 37 38 39 40 41 42 43 44 45 46 47 48 49 50
000
ASUS43 KTOP 241859
RWRKS

WEATHER ROUNDUP FOR KANSAS
NATIONAL WEATHER SERVICE GOODLAND KS
200 PM CDT THU APR 24 2014

NOTE:  "FAIR" INDICATES FEW OR NO CLOUDS BELOW 12,000 FEET WITH NO
SIGNIFICANT WEATHER AND/OR OBSTRUCTIONS TO VISIBILITY.

KSZ001>006-013>018-027>032-041>047-242000-
NORTHWEST KANSAS

CITY           SKY/WX    TMP DP  RH WIND       PRES   REMARKS
GOODLAND       SUNNY     63  13  14 NW15G29   29.94F
HAYS           MOSUNNY   66  36  32 N20G28    29.88F
HILL CITY      MOSUNNY   67  30  25 NW18G24   29.89F
RUSSELL        PTSUNNY   67  35  30 N22G33    29.85F
$$

KSZ061>065-074>080-084>089-242000-
SOUTHWEST KANSAS

CITY           SKY/WX    TMP DP  RH WIND       PRES   REMARKS
DODGE CITY     MOSUNNY   65  34  31 N20G26    29.92S
ELKHART          N/A     64  24  21 NW16        N/A
GARDEN CITY    SUNNY     68  18  14 NW18G29   29.94F
GREAT BEND     MOSUNNY   64  36  34 N20G29    29.87S
LIBERAL        SUNNY     68  28  22 NW21G28   29.97F
$$

KSZ066>073-081>083-090>101-242000-
SOUTHEAST KANSAS

CITY           SKY/WX    TMP DP  RH WIND       PRES   REMARKS
CHANUTE        CLOUDY    60  57  89 NW13      29.69F
COFFEYVILLE    CLOUDY    62  57  83 NW18G28   29.68S
HUTCHINSON     CLOUDY    61  40  45 NW24G38   29.82R
MEDICINE LODGE   N/A     68  40  35 N16G32    29.85S
NEWTON         CLOUDY    57  43  58 NW24G31   29.82R
PARSONS        LGT RAIN  61  57  87 NW16G23   29.68S
WICHITA INTL   PTSUNNY   64  41  42 N29G38    29.80R
WICHITA JABRA  CLOUDY    59  44  57 NW22G37   29.79R
WINFIELD       CLOUDY    66  45  46 NW30G37   29.79R
$$

KSZ007>012-019>026-033>040-048>060-102>105-242000-
NORTHEAST KANSAS

CITY           SKY/WX    TMP DP  RH WIND       PRES   REMARKS
CONCORDIA      CLOUDY    62  42  47 N18G28    29.80S
EMPORIA        CLOUDY    61  50  67 NW23G31   29.72R
LAWRENCE       CLOUDY    57  53  86 N10       29.68R
MANHATTAN      CLOUDY    58  47  66 NW12G23   29.75R
OLATHE IND     RAIN      57  54  89 NW14G23   29.69R FOG
OLATHE EXE     RAIN      57  54  89 NW12G25   29.66R FOG
SALINA         CLOUDY    61  41  47 NW22G33   29.81S
TOPEKA BILLARD CLOUDY    57  52  83 NW12      29.70R
TOPEKA FORBES  CLOUDY    56  51  84 NW16      29.70R
$$



USA.gov is the U.S. government's official web portal to all federal, state and local government web resources and services.